Regional Weather Roundup
Issued by NWS Albany, NY

Home | Current Version | Previous Version | Text Only | Print | Product List | Glossary On
Versions: 1 2 3 4 5 6 7 8 9 10 11 12 13 14 15 16 17 18 19 20 21 22 23 24 25 26 27
000
ASUS41 KALY 182210
RWRALY

NEW YORK STATE HOURLY WEATHER ROUNDUP
NATIONAL WEATHER SERVICE ALBANY NY
600 PM EDT FRI APR 18 2014

NOTE: "FAIR" INDICATES FEW OR NO CLOUDS BELOW 12,000 FEET WITH NO
SIGNIFICANT WEATHER AND/OR NO OBSTRUCTIONS TO VISIBILITY.

NYZ032-033-038>043-046>054-057>066-NYZ062>081-182300-
EAST


CITY           SKY/WX    TMP DP  RH WIND       PRES   REMARKS
ALBANY         CLOUDY    50  24  36 S12       30.26F
GLENS FALLS    CLOUDY    53  23  31 SW9       30.25F
POUGHKEEPSIE   CLOUDY    50  22  33 VRB6      30.30F
NEWBURGH       MOSUNNY   48  30  49 VRB6      30.31
MONTGOMERY     CLOUDY    50  25  37 S7        30.29F
WHITE PLAINS   CLOUDY    43  29  57 S5        30.33F
ISLIP          PTSUNNY   43  33  68 S7        30.35S
NEW YORK CITY  CLOUDY    46  30  53 S8        30.35F
CENTRAL PARK   CLOUDY    47  30  51 S6        30.36F
$$

NYZ005>009-017-018-044>046-055-056-182300-
CENTRAL


CITY           SKY/WX    TMP DP  RH WIND       PRES   REMARKS
FULTON         SUNNY     61  33  35 W6        30.17F
SYRACUSE       MOSUNNY   60  33  36 SE5       30.16F
ROME           SUNNY     58  30  34 S9        30.19F
ELMIRA         MOSUNNY   61  31  32 S12       30.17F
BINGHAMTON     MOSUNNY   52  30  43 S7        30.20F
MONTICELLO     CLOUDY    46  25  42 S12       30.28F
$$

NYZ026>034-041>043-182300-
NORTH


CITY           SKY/WX    TMP DP  RH WIND       PRES   REMARKS
WATERTOWN      CLOUDY    55  31  39 W10       30.19S
FORT DRUM      NOT AVBL
MASSENA        CLOUDY    54  31  41 CALM      30.18F
SARANAC LAKE   PTSUNNY   50  17  27 S12       30.13F
PLATTSBURGH    CLOUDY    50  20  30 S15       30.17F
$$

NYZ001>004-010>016-019>021-182300-
WEST


CITY           SKY/WX    TMP DP  RH WIND       PRES   REMARKS
NIAGARA FALLS  PTSUNNY   50  38  63 N7        30.22S
BUFFALO        LGT RAIN  49  35  58 W8        30.22R
DUNKIRK        PTSUNNY   49  32  52 W8G17     30.24R
JAMESTOWN      PTSUNNY   55  36  47 W12G22    30.22R
WELLSVILLE     MOSUNNY   62  26  25 W22G29    30.17F
ROCHESTER      PTSUNNY   54  33  45 N10       30.20F
PENN YAN       CLOUDY    61  35  37 MISG      30.15F
$$

             KEY
       WCI = WIND CHILL INDEX
       VSB = VISIBILITY
       HX  = HEAT INDEX
$$



USA.gov is the U.S. government's official web portal to all federal, state and local government web resources and services.